Location: Frydek-Mistek
(49.6830°N, 18.3330°E)
Time: 14:12:42
(UTC+02:00)

ISS - Pass Details

Date: 21 April 2026
Orbit: 414 x 424 km, 51.6° (Epoch: 18 May)

Event Time Altitude Azimuth Distance (km) Brightness Sun altitude
Exits shadow 04:41:28 10° 206° (SSW) 1,470 -1.5 -9.8°
Maximum altitude 04:44:20 28° 145° (SE) 818 -2.3 -9.4°
Drops below altitude 10° 04:47:17 10° 84° (E) 1,507 0.2 -9.0°
Sets 04:49:34 0° 73° (ENE) 2,378 2.0 -8.7°
